Probability
0 1 2 4 5 6 6 6 6 6 3 1 0 0 0 0 0 0 0 0 0 0 0 0 0 0 0 0 0 0 0 0 0 0 0 0 0 0 0 0 0 0 0
0 1 2 3 4 4 5 6 6 6 3 1 0 0 0 0 0 0 0 0 0 0 0 0 0 0 0 0 0 0 0 0 0 0 0 0 0 0 0 0 0 0 0
0 0 1 2 2 3 4 6 6 6 4 2 1 0 0 0 0 0 0 0 0 0 0 0 0 0 0 0 0 0 0 0 0 0 0 0 0 0 0 0 0 0 0
0 0 0 1 1 1 2 4 5 5 3 2 1 0 0 0 0 0 0 0 0 0 0 0 0 0 0 0 0 0 0 0 0 0 0 0 0 0 0 0 0 0 0
0 0 0 0 1 2 2 3 4 3 2 1 0 0 0 0 0 0 0 0 0 0 0 0 0 0 0 0 0 0 0 0 0 0 0 0 0 0 0 0 0 0 0
0 0 0 0 1 2 3 3 3 3 2 1 0 0 0 0 0 0 0 0 0 0 0 0 0 0 0 0 0 0 0 0 0 0 0 0 0 0 0 0 0 0 0
0 0 0 0 0 1 3 3 3 3 2 1 0 0 0 0 0 0 0 0 0 0 0 0 0 0 0 0 0 0 0 0 0 0 0 0 0 0 0 0 0 0 0
0 0 0 0 0 1 2 3 3 2 2 1 0 0 0 0 0 0 0 0 0 0 0 0 0 0 0 0 0 0 0 0 0 0 0 0 0 0 0 0 0 0 0
0 0 0 0 0 1 2 3 2 1 1 1 0 0 0 0 0 0 0 0 0 0 0 0 0 0 0 0 0 0 0 0 0 0 0 0 0 0 0 0 0 0 0
0 0 0 0 0 1 2 3 2 1 0 0 0 0 0 0 0 0 0 0 0 0 0 0 0 0 0 0 0 0 0 0 0 0 0 0 0 0 0 0 0 0 0
0 0 0 0 0 1 2 3 3 1 0 0 0 0 0 0 0 0 0 0 0 0 0 0 0 0 0 0 0 0 0 0 0 0 0 0 0 0 0 0 0 0 0
0 0 0 0 0 1 2 3 3 2 1 0 0 0 0 0 0 0 0 0 0 0 0 0 0 0 0 0 0 0 0 0 0 0 0 0 0 0 0 0 0 0 0
0 0 0 0 0 1 2 3 3 2 1 0 0 0 0 0 0 0 0 0 0 0 0 0 0 0 0 0 0 0 0 0 0 0 0 0 0 0 0 0 0 0 0
0 0 0 0 0 1 2 3 3 2 1 0 0 0 0 0 0 0 0 0 0 0 0 0 0 0 0 0 0 0 0 0 0 0 0 0 0 0 0 0 0 0 0
0 0 0 0 0 0 1 3 3 2 1 0 0 0 0 0 0 0 0 0 0 0 0 0 0 0 0 0 0 0 0 0 0 0 0 0 0 0 0 0 0 0 0
0 0 0 0 0 0 1 2 2 1 0 0 0 0 0 0 0 0 0 0 0 0 0 0 0 0 0 0 0 0 0 0 0 0 0 0 0 0 0 0 0 0 0
0 0 0 0 0 0 1 1 1 0 0 0 0 0 0 0 0 0 0 0 0 0 0 0 0 0 0 0 0 0 0 0 0 0 0 0 0 0 0 0 0 0 0
0 0 0 0 0 0 0 0 0 0 0 0 0 0 0 0 0 0 0 0 0 0 0 0 0 0 0 0 0 0 0 0 0 0 0 0 0 0 0 0 0 0 0
0 0 0 0 0 0 0 0 0 0 0 0 0 0 0 0 0 0 0 0 0 0 0 0 0 0 0 0 0 0 0 0 0 0 0 0 0 0 0 0 0 0 0
0 0 0 0 0 0 0 0 0 0 0 0 0 0 0 0 0 0 0 0 0 0 0 0 0 0 0 0 0 0 0 0 0 0 0 0 0 0 0 0 0 0 0
0 0 0 0 0 0 0 0 0 0 0 0 0 0 0 0 0 0 0 0 0 0 0 0 0 0 0 0 0 0 0 0 0 0 0 0 0 0 0 0 0 0 0
0 0 0 0 0 0 0 0 0 0 0 0 0 0 0 0 0 0 0 0 0 0 0 0 0 0 0 0 0 0 0 0 0 0 0 0 0 0 0 0 0 0 0
0 0 0 0 0 0 0 0 0 0 0 0 0 0 0 0 0 0 0 0 0 0 0 0 0 0 0 0 0 0 0 0 0 0 0 0 0 0 0 0 0 0 0
0 0 0 0 0 0 0 0 0 0 0 0 0 0 0 0 0 0 0 0 0 0 0 0 0 0 0 0 0 0 0 0 0 0 0 0 0 0 0 0 0 0 0
0 0 0 0 0 0 0 0 0 0 0 0 0 0 0 0 0 0 0 0 0 0 0 0 0 0 0 0 0 0 0 0 0 0 0 0 0 0 0 0 0 0 0
0 0 0 0 0 0 0 0 0 0 0 0 0 0 0 0 0 0 0 0 0 0 0 0 0 0 0 0 0 0 0 0 0 0 0 0 0 0 0 0 0 0 0
Wind_Speed
5 4 4 4 3 3 3 3 3 2 2 1 1 1 1 1 1 2 2 3 2 2 3 2 2 2 2 1 2 2 3 2 2 2 2 2 2 1 1 1 1 1 1
5 5 4 4 4 3 3 3 3 3 2 1 1 1 1 1 1 1 2 2 2 2 2 2 2 1 2 2 2 2 2 1 1 1 1 0 1 2 2 1 1 1 1
6 5 5 4 4 3 3 3 3 2 2 2 1 1 1 1 1 1 1 2 2 2 2 2 2 2 2 2 2 1 2 1 0 0 2 2 2 1 1 1 0 1 1
5 5 4 4 3 3 3 3 3 2 2 3 2 2 1 2 1 1 1 1 1 1 1 1 2 2 2 2 2 1 0 2 2 0 1 0 1 1 1 1 1 1 1
5 5 4 4 3 3 2 2 3 2 2 2 3 2 1 1 1 1 2 2 1 1 1 1 1 1 1 2 2 1 0 1 1 1 0 0 1 1 2 2 2 2 1
5 4 4 3 3 3 2 2 2 2 2 2 2 2 2 2 2 2 2 2 1 1 1 1 1 1 1 1 1 1 1 1 1 1 1 1 1 1 1 1 2 2 2
5 4 4 3 3 3 2 2 2 2 2 2 2 1 2 2 2 3 2 2 1 1 2 1 1 1 1 1 2 2 2 1 2 2 2 2 2 1 1 1 2 2 2
4 4 4 3 3 3 3 2 2 2 2 2 2 2 1 1 1 1 2 2 2 1 2 1 1 1 1 2 2 2 2 2 2 2 2 2 2 2 2 2 2 2 2
3 3 3 3 3 3 3 3 3 2 2 2 2 2 2 1 1 1 1 1 1 1 2 2 2 2 2 2 2 2 3 3 3 3 2 2 2 2 2 2 3 3 3
2 2 2 2 2 3 2 2 2 2 2 2 2 1 1 1 1 1 1 1 1 1 2 3 3 2 2 2 2 2 3 3 3 2 3 2 2 2 2 2 3 3 3
2 2 2 2 2 2 2 2 2 2 1 1 1 1 1 1 1 1 1 1 1 2 2 3 3 3 2 2 2 3 3 3 3 3 3 3 3 2 2 2 3 3 3
2 1 1 1 1 1 2 2 2 2 1 1 1 1 1 1 1 1 1 1 2 2 2 2 3 3 3 3 3 3 4 4 4 4 4 4 3 3 3 3 4 4 4
1 1 1 1 1 1 1 1 1 1 1 1 1 1 1 1 1 1 1 2 2 2 2 2 3 3 3 3 3 4 4 4 4 4 4 4 4 4 4 4 4 4 4
2 2 2 1 2 1 1 1 1 1 1 1 1 2 2 2 2 1 1 2 2 2 2 2 3 3 3 4 4 4 4 4 4 4 4 4 5 5 5 5 5 4 4
1 2 2 2 1 1 1 1 1 1 1 2 2 2 2 1 1 1 1 2 2 2 2 2 3 3 3 4 4 4 4 3 3 3 4 5 6 8 6 5 5 4 4
3 3 2 2 1 1 1 1 1 1 1 2 2 2 1 1 1 1 1 2 1 2 2 2 3 3 3 6 7 5 3 3 4 4 4 5 6 8 9 10 9 8 6
3 2 2 2 2 2 1 2 1 1 1 1 1 1 1 2 1 1 1 2 2 2 2 2 2 3 4 7 7 7 3 3 4 4 4 4 5 7 5 8 10 10 12
2 2 1 1 1 1 1 0 0 0 1 1 1 1 1 2 1 1 2 2 2 2 2 3 3 3 4 7 8 7 4 3 4 5 5 5 5 6 6 6 6 6 7
1 1 1 1 1 0 1 1 0 0 1 1 1 1 2 2 2 2 2 2 2 2 3 3 3 3 4 7 7 6 3 3 4 5 5 5 5 9 11 7 6 7 7
1 1 1 1 1 0 1 1 1 1 1 1 2 2 2 2 2 2 2 2 2 2 3 3 3 3 4 6 7 6 2 3 3 4 5 8 8 10 11 7 6 7 6
2 2 1 1 1 1 1 1 1 1 2 2 2 2 2 2 2 2 2 2 2 2 2 3 3 3 4 5 6 6 2 2 3 3 3 5 9 10 10 9 6 9 7
2 2 1 1 1 1 1 0 1 1 2 2 2 2 2 2 2 1 1 1 2 2 2 2 3 2 3 5 6 7 6 5 3 3 3 5 9 10 11 8 9 11 8
1 1 1 1 2 1 1 0 1 1 1 2 2 2 2 2 2 1 1 1 1 2 2 2 2 3 3 4 7 7 7 7 4 3 7 9 10 9 7 8 10 8 4
1 1 1 1 1 1 1 1 1 1 1 1 2 2 2 2 2 2 2 1 1 2 2 2 3 3 3 3 3 3 4 6 5 4 6 9 9 7 6 6 5 3 3
1 1 1 1 1 2 2 2 1 1 1 1 2 2 2 2 2 2 2 2 2 3 3 3 3 3 3 5 7 5 3 3 4 4 3 3 3 3 2 2 2 2 3
1 1 1 1 1 1 2 2 1 1 1 2 2 2 2 2 2 2 3 4 5 6 8 7 6 5 7 9 9 9 8 7 6 4 2 3 3 3 3 3 3 3 3
Wind_Direction
172 161 155 152 146 138 141 145 138 131 124 128 149 144 128 94 79 75 73 68 63 66 77 85 94 83 94 94 101 107 105 95 99 74 39 10 5 27 2 39 90 75 72
172 169 162 159 161 162 163 156 147 147 144 146 164 158 138 124 113 96 83 74 72 73 79 87 106 107 101 94 89 107 111 126 130 122 117 60 350 354 345 9 71 92 67
185 178 172 171 166 167 174 168 160 156 158 141 121 94 101 107 98 107 98 78 75 79 80 95 103 113 119 128 118 112 125 157 203 111 138 156 202 303 309 300 356 47 43
177 176 174 168 170 172 167 166 160 160 163 148 151 155 173 178 184 172 147 112 98 94 89 105 108 119 122 128 141 109 115 150 175 244 335 257 158 167 270 308 310 334 314
171 173 171 166 164 157 155 160 152 156 164 165 175 185 176 187 156 147 149 143 135 129 122 118 114 122 128 135 136 128 135 149 185 195 285 324 348 330 181 243 278 301 276
166 163 155 144 143 143 146 154 162 167 164 168 181 184 184 188 167 167 178 174 163 163 160 149 131 133 131 145 158 176 182 195 204 220 216 203 190 202 203 227 246 272 280
160 156 154 156 153 152 152 155 164 175 170 172 179 194 197 190 186 181 187 187 186 196 187 155 153 158 159 172 174 195 200 209 213 216 232 233 236 221 219 209 252 278 286
152 154 156 163 164 165 161 159 170 177 177 177 187 193 200 193 197 201 186 191 196 198 187 169 181 191 193 204 194 207 220 217 217 231 235 235 237 230 214 207 211 271 281
145 146 147 158 169 172 174 179 173 175 182 186 184 189 188 175 202 233 229 194 187 191 184 187 201 207 204 210 202 213 223 221 222 222 230 239 244 229 231 222 208 207 247
146 146 156 169 172 169 169 166 165 181 188 188 192 191 185 182 195 198 244 231 194 191 193 196 206 212 215 217 216 220 221 225 229 224 220 236 248 242 230 224 234 235 238
192 169 169 173 160 150 158 163 171 173 184 198 202 186 192 196 183 196 230 252 225 193 201 203 209 210 210 214 216 222 219 224 233 233 227 235 237 244 243 233 236 242 240
190 172 165 152 144 159 170 176 178 180 195 197 197 193 195 191 185 206 235 252 255 219 210 210 213 217 216 215 217 225 223 221 226 230 227 235 236 239 244 237 241 244 239
172 179 167 186 200 202 196 194 190 196 193 193 196 198 200 198 206 219 240 247 258 248 230 219 219 223 224 225 226 227 225 225 225 226 227 232 231 238 240 240 246 248 246
194 206 206 213 211 206 195 195 196 193 184 194 208 220 220 215 217 224 234 244 255 250 240 236 230 229 233 233 231 233 231 228 231 233 232 233 232 232 232 235 239 242 239
228 228 226 217 211 204 205 202 204 194 188 200 217 235 237 226 220 224 235 241 255 261 257 253 242 237 235 235 231 230 231 232 238 243 244 242 247 248 245 242 234 232 235
240 237 218 204 207 213 219 227 220 208 198 213 229 243 245 240 228 228 238 245 254 259 254 257 247 240 250 258 258 254 233 232 237 246 249 251 252 253 254 255 252 243 235
251 237 218 210 217 223 209 220 221 201 211 235 245 254 255 258 252 248 247 252 248 246 241 246 251 250 256 262 263 261 252 230 233 239 243 252 255 259 254 254 258 257 255
248 253 220 205 209 220 199 157 123 187 222 246 273 289 281 275 269 247 247 255 254 242 243 243 249 257 270 273 266 264 255 239 239 239 237 241 247 253 256 251 251 253 254
203 195 213 188 144 157 132 108 65 340 259 273 299 307 299 287 278 268 262 253 252 254 251 245 245 253 269 278 278 275 245 245 246 249 248 249 246 254 260 258 252 256 261
87 100 84 82 103 111 107 98 36 347 312 310 307 301 291 275 273 266 262 250 252 258 265 268 259 254 259 276 288 288 254 256 257 252 253 255 259 259 261 256 248 250 255
64 86 89 70 36 51 85 72 7 321 319 327 326 312 299 283 275 266 254 245 261 265 265 275 274 264 266 278 284 290 281 259 260 261 262 263 268 269 266 265 254 258 262
56 62 74 44 18 38 86 58 325 333 345 340 329 322 322 312 305 288 260 243 242 252 261 270 282 281 277 283 282 287 290 288 262 262 269 272 274 276 274 271 269 271 269
64 53 70 39 14 27 71 65 329 351 351 342 332 329 329 322 314 291 263 249 232 243 266 271 284 293 295 285 289 290 294 293 287 272 282 287 283 282 277 277 279 273 259
59 59 54 32 359 14 25 12 346 7 9 344 328 324 326 321 320 309 294 276 253 250 268 275 281 291 293 291 290 285 285 290 290 283 279 283 284 287 291 289 287 281 262
40 46 30 357 343 359 356 354 5 15 1 330 315 314 315 316 314 306 287 278 256 255 261 256 261 274 282 289 298 303 292 289 286 300 288 279 279 280 292 294 293 293 295
23 19 11 355 345 352 346 348 358 10 343 311 310 306 307 308 310 310 312 301 292 291 287 285 285 282 284 293 297 299 300 298 296 296 288 289 287 282 283 284 286 288 288